Harlingen, TX

4:52 PM CST on January 21, 2017 (GMT -0600)
Valley International

Weather History for KHRL - March, 2014

Change the Weather History Date:

Thursday, March 20, 2014

  Actual Average Record
Temperature  
Mean Temperature 72 °F 70 °F  
Max Temperature 79 °F 81 °F 99 °F (2006)
Min Temperature 64 °F 59 °F 37 °F (1931)
Degree Days  
Heating Degree Days 0 1  
Month to date heating degree days 96 38  
Since 1 July heating degree days 907 606  
Cooling Degree Days 7 6  
Month to date cooling degree days 46 95  
Year to date cooling degree days 157 220  
Growing Degree Days 22 (Base 50)    
Moisture  
Dew Point 62 °F    
Average Humidity 71    
Maximum Humidity 93    
Minimum Humidity 48    
Precipitation  
Precipitation 0.00 in 0.04 in 1.52 in (1914)
Month to date precipitation 1.65 0.73  
Year to date precipitation 2.65 3.20  
Sea Level Pressure  
Sea Level Pressure 30.10 in    
Wind  
Wind Speed 9 mph (NE)    
Max Wind Speed 16 mph    
Max Gust Speed 22 mph    
Visibility 10 miles    
Events      
T = Trace of Precipitation, MM = Missing Value Source: NWS Daily Summary

Daily Weather History Graph

Daily Weather History Graph

Search for Another Location

Airport or City:

Trip Planner

Search our weather history database for the weather conditions in past years. The results will help you decide how hot, cold, wet, or windy it might be!

Date:

Astronomy

Mar. 20, 2014 Rise Set
Actual Time 7:34 AM CDT 7:41 PM CDT
Civil Twilight 7:11 AM CDT 8:04 PM CDT
Nautical Twilight 6:44 AM CDT 8:31 PM CDT
Astronomical Twilight 6:17 AM CDT 8:58 PM CDT
Moon 11:38 PM CDT (3/20) 10:04 AM CDT (3/20)
Length of Visible Light 12h 53m
Length of Day
12h 07m
Waning Gibbous, 84% of the Moon is Illuminated
Mar 20
Waning Gibbous
Mar 23
Last Quarter
Mar 30
New
Apr 7
First Quarter
Apr 15
Full

Hourly Weather History & Observations

Time (CDT) Temp. Dew Point Humidity Pressure Visibility Wind Dir Wind Speed Gust Speed Precip Events Conditions
12:52 AM 66.0 °F 63.0 °F 90% 30.11 in 10.0 mi North 4.6 mph - N/A   Partly Cloudy
1:52 AM 66.9 °F 64.0 °F 90% 30.11 in 10.0 mi NNW 6.9 mph - N/A   Overcast
2:07 AM 66.2 °F 64.4 °F 94% 30.11 in 10.0 mi North 5.8 mph - N/A   Overcast
2:52 AM 66.0 °F 64.0 °F 93% 30.10 in 10.0 mi North 4.6 mph - N/A   Overcast
3:09 AM 66.2 °F 64.4 °F 94% 30.09 in 10.0 mi North 3.5 mph - N/A   Overcast
3:52 AM 66.0 °F 64.0 °F 93% 30.09 in 10.0 mi North 4.6 mph - N/A   Overcast
4:22 AM 66.2 °F 64.4 °F 94% 30.08 in 10.0 mi NNE 5.8 mph - N/A   Overcast
4:33 AM 66.2 °F 64.4 °F 94% 30.09 in 10.0 mi NNE 4.6 mph - N/A   Overcast
4:40 AM 66.2 °F 64.4 °F 94% 30.08 in 10.0 mi NE 4.6 mph - N/A   Overcast
4:48 AM 66.2 °F 64.4 °F 94% 30.08 in 10.0 mi NNE 4.6 mph - N/A   Overcast
4:52 AM 66.0 °F 64.0 °F 93% 30.09 in 10.0 mi North 4.6 mph - N/A   Overcast
5:52 AM 66.0 °F 64.0 °F 93% 30.09 in 10.0 mi NNE 4.6 mph - N/A   Overcast
6:47 AM 66.2 °F 64.4 °F 94% 30.12 in 10.0 mi NNE 10.4 mph - N/A   Overcast
6:52 AM 66.0 °F 64.0 °F 93% 30.12 in 10.0 mi NNE 9.2 mph - N/A   Overcast
7:13 AM 66.2 °F 64.4 °F 94% 30.13 in 10.0 mi NNE 8.1 mph - N/A   Overcast
7:52 AM 66.0 °F 63.0 °F 90% 30.14 in 10.0 mi NNE 6.9 mph - N/A   Overcast
8:52 AM 64.0 °F 59.0 °F 84% 30.16 in 10.0 mi NNE 16.1 mph - N/A   Overcast
9:52 AM 64.9 °F 57.0 °F 75% 30.18 in 10.0 mi NNE 11.5 mph - N/A   Overcast
10:52 AM 70.0 °F 59.0 °F 68% 30.18 in 10.0 mi NE 11.5 mph - N/A   Mostly Cloudy
11:52 AM 73.9 °F 62.1 °F 66% 30.17 in 10.0 mi NE 11.5 mph - N/A   Overcast
12:52 PM 75.9 °F 61.0 °F 60% 30.15 in 10.0 mi NE 10.4 mph - N/A   Overcast
1:52 PM 77.0 °F 61.0 °F 58% 30.13 in 10.0 mi East 11.5 mph 19.6 mph N/A   Overcast
2:52 PM 77.0 °F 60.1 °F 56% 30.11 in 10.0 mi ESE 11.5 mph - N/A   Overcast
3:52 PM 79.0 °F 60.1 °F 52% 30.08 in 10.0 mi ENE 10.4 mph - N/A   Mostly Cloudy
4:52 PM 78.1 °F 57.9 °F 50% 30.06 in 10.0 mi East 9.2 mph - N/A   Partly Cloudy
5:52 PM 75.9 °F 57.9 °F 54% 30.06 in 10.0 mi East 10.4 mph - N/A   Clear
6:52 PM 71.1 °F 60.1 °F 68% 30.06 in 10.0 mi East 11.5 mph - N/A   Scattered Clouds
7:52 PM 70.0 °F 61.0 °F 73% 30.07 in 10.0 mi ESE 11.5 mph - N/A   Overcast
8:52 PM 68.0 °F 62.1 °F 81% 30.07 in 10.0 mi ESE 11.5 mph - N/A   Overcast
9:52 PM 68.0 °F 63.0 °F 84% 30.08 in 10.0 mi ESE 11.5 mph - N/A   Overcast
10:52 PM 68.0 °F 63.0 °F 84% 30.08 in 10.0 mi SE 9.2 mph - N/A   Overcast
11:52 PM 66.9 °F 63.0 °F 87% 30.07 in 10.0 mi SE 9.2 mph - N/A   Mostly Cloudy